Database: COMPET-N - COOP - 3PL - 4PL - CNDOOM

WAD: Doom | Doom 2 | TNT | Plutonia | AV | HR | Scythe | MM | MM2 | Requiem | CE
Category: speed | nmare | max | nm100s | tyson | pacifist | fast | respawn | nomo | misc | built | all
Highscore: ALL | IWAD | PWAD | Country | Continent

< Previous map       Next map >
Remove: wad | map | category | player | allMAP01
MapPlayerTimeDateFilenameCommentsDL
MAP01: OutpostKimo Xvirus21.002009-04-17m201-021.zip - 323
MAP01: OutpostAdam Williamson23.002001-04-03m201-023.zip - 248
MAP01: OutpostJim Leonard42.512018-12-07m201n042.zip - 115
MAP01: OutpostJim Leonard54.002003-05-06m201n054.zip - 291
MAP01: OutpostAdam Hegyi55.002001-04-02m201n055.zip - 199
MAP01: OutpostKimo Xvirus1:14.002013-07-27m201-114.zip - 837
MAP01: OutpostKimo Xvirus1:16.002010-04-09m201-116.zip - 266
MAP01: OutpostRadek Pecka1:21.002001-05-19m201-121.zip - 239
MAP01: OutpostPeo Sjoblom1:27.001998-05-12m201-127.zip - 267
MAP01: OutpostJim Leonard1:16.832018-12-08m201s116.zip - 112
MAP01: OutpostVdgg 1:51.002010-07-11m201s151.zip - 241
MAP01: OutpostVdgg 2:00.002010-07-09m201s200.zip - 261
MAP01: OutpostJim Leonard2:13.002003-05-06m201s213.zip - 238
MAP01: OutpostJim Leonard3:25.172018-12-11m201t325.zip - 123
MAP01: OutpostRadek Pecka4:37.002002-11-29m201t437.zip - 221
MAP01: OutpostJim Leonard5:04.002002-05-08m201t504.zip - 281
MAP01: OutpostAnthony Soto5:59.002002-05-06m201t559.zip - 219
MAP01: OutpostJim Leonard6:42.002002-04-28m201t642.zip - 226
MAP01: OutpostAnthony Soto7:42.002002-03-22m201t742.zip - 212
MAP01: OutpostCasey Alvis15:57.002002-02-13m2011557.zip - 266
MAP01: OutpostEugene Kapustin33.002006-04-09m201p033.zip - 329
MAP01: OutpostJim Leonard5:34.002003-05-05m201p534.zip - 264
MAP01: OutpostKimo Xvirus1:24.002010-04-09m201f124.zip - 350
MAP01: OutpostEugene Kapustin1:43.002007-01-03m201f143.zip - 244
MAP01: OutpostPhilip Renshaw1:44.002006-04-25m201f144.zip - 306
MAP01: OutpostEugene Kapustin1:47.002006-04-10m201f147.zip - 244
MAP01: OutpostChris Ratcliff1:49.002002-02-07m201f149.zip - 228
MAP01: OutpostCasey Alvis3:50.002002-02-04m201f350.zip - 192
MAP01: OutpostKimo Xvirus1:12.002010-04-09m201r112.zip - 315
MAP01: OutpostRadek Pecka1:21.002002-05-02m201r121.zip - 217
MAP01: OutpostJason Dyer1:39.002002-05-01m201r139.zip - 229
MAP01: OutpostCasey Alvis2:52.002002-03-26m201r252.zip - 190
Remove: wad | map | category | player | all